| time (UTC) | temp F | wind direction | speed MPH | gust MPH | rain 1hr in | rain 24hr in | rain mn in | humidity % | barometer mb |
| 20260901104017 | 56 | 0 | 0.0 | 5.0 | 0.00 | 0.00 | 0.00 | 93 | 1011.6 |
| 20260901103504 | 57 | 0 | 0.0 | 4.0 | 0.00 | 0.00 | 0.00 | 93 | 1011.6 |
| 20260901102951 | 57 | 0 | 0.0 | 0.0 | 0.00 | 0.00 | 0.00 | 93 | 1011.6 |
| 20260901102438 | 56 | 0 | 0.0 | 8.0 | 0.00 | 0.00 | 0.00 | 93 | 1011.5 |
| 20260901101925 | 57 | 0 | 0.0 | 8.0 | 0.00 | 0.00 | 0.00 | 93 | 1011.5 |
| 20260901101412 | 57 | 319 | 0.0 | 8.0 | 0.00 | 0.00 | 0.00 | 93 | 1011.5 |
| 20260901100859 | 56 | 176 | 0.0 | 6.0 | 0.00 | 0.00 | 0.00 | 92 | 1011.5 |
| 20260901100346 | 56 | 161 | 2.0 | 6.0 | 0.00 | 0.00 | 0.00 | 92 | 1011.4 |
| 20260901095834 | 56 | 228 | 0.0 | 3.0 | 0.00 | 0.00 | 0.00 | 92 | 1011.5 |
| 20260901095320 | 57 | 0 | 0.0 | 8.0 | 0.00 | 0.00 | 0.00 | 92 | 1011.5 |
| 20260901094807 | 57 | 0 | 0.0 | 8.0 | 0.00 | 0.00 | 0.00 | 92 | 1011.5 |
| 20260901094254 | 58 | 232 | 0.0 | 8.0 | 0.00 | 0.00 | 0.00 | 92 | 1011.5 |
| 20260901093742 | 57 | 215 | 1.0 | 7.0 | 0.00 | 0.00 | 0.00 | 92 | 1011.6 |
| 20260901092202 | 57 | 152 | 0.0 | 8.0 | 0.00 | 0.00 | 0.00 | 92 | 1011.5 |
| 20260901091649 | 57 | 254 | 0.0 | 8.0 | 0.00 | 0.00 | 0.00 | 92 | 1011.6 |
| 20260901091136 | 57 | 176 | 2.0 | 7.0 | 0.00 | 0.00 | 0.00 | 92 | 1011.5 |
| 20260901090110 | 56 | 0 | 0.0 | 7.0 | 0.00 | 0.00 | 0.00 | 92 | 1011.5 |
| 20260901085557 | 57 | 305 | 1.0 | 6.0 | 0.00 | 0.00 | 0.00 | 92 | 1011.4 |
| 20260901085044 | 56 | 235 | 0.0 | 9.0 | 0.00 | 0.00 | 0.00 | 92 | 1011.4 |
| 20260901084531 | 57 | 0 | 0.0 | 9.0 | 0.00 | 0.00 | 0.00 | 92 | 1011.4 |
| 20260901084018 | 57 | 281 | 0.0 | 9.0 | 0.00 | 0.00 | 0.00 | 92 | 1011.5 |
| 20260901083505 | 57 | 249 | 1.0 | 7.0 | 0.00 | 0.00 | 0.00 | 92 | 1011.5 |
| 20260901082952 | 57 | 0 | 1.0 | 7.0 | 0.00 | 0.00 | 0.00 | 92 | 1011.5 |
| 20260901082439 | 57 | 0 | 0.0 | 7.0 | 0.00 | 0.00 | 0.00 | 92 | 1011.6 |
| 20260901081926 | 57 | 246 | 0.0 | 6.0 | 0.00 | 0.00 | 0.00 | 92 | 1011.5 |
| 20260901081413 | 57 | 243 | 0.0 | 7.0 | 0.00 | 0.00 | 0.00 | 92 | 1011.5 |
| 20260901080900 | 57 | 0 | 0.0 | 7.0 | 0.00 | 0.00 | 0.00 | 92 | 1011.4 |
| 20260901080347 | 58 | 245 | 3.0 | 7.0 | 0.00 | 0.00 | 0.00 | 92 | 1011.4 |
| 20260901075835 | 57 | 274 | 0.0 | 2.0 | 0.00 | 0.00 | 0.00 | 92 | 1011.3 |
| 20260901075321 | 57 | 0 | 0.0 | 0.0 | 0.00 | 0.00 | 0.00 | 92 | 1011.3 |
| 20260901074808 | 57 | 0 | 0.0 | 6.0 | 0.00 | 0.00 | 0.00 | 92 | 1011.2 |
| 20260901074255 | 57 | 274 | 0.0 | 6.0 | 0.00 | 0.00 | 0.00 | 92 | 1011.2 |
| 20260901073742 | 57 | 0 | 0.0 | 6.0 | 0.00 | 0.00 | 0.00 | 92 | 1011.2 |
| 20260901072716 | 58 | 0 | 0.0 | 3.0 | 0.00 | 0.00 | 0.00 | 92 | 1011.3 |
| 20260901072203 | 57 | 0 | 0.0 | 3.0 | 0.00 | 0.00 | 0.00 | 92 | 1011.2 |
| 20260901071650 | 57 | 0 | 0.0 | 3.0 | 0.00 | 0.00 | 0.00 | 92 | 1011.3 |
| 20260901071137 | 57 | 0 | 0.0 | 3.0 | 0.00 | 0.00 | 0.00 | 92 | 1011.3 |
| 20260901070624 | 58 | 0 | 0.0 | 3.0 | 0.00 | 0.00 | 0.00 | 92 | 1011.2 |
| 20260901070111 | 57 | 0 | 0.0 | 0.0 | 0.00 | 0.00 | 0.00 | 92 | 1011.2 |
| 20260901065558 | 57 | 0 | 0.0 | 0.0 | 0.00 | 0.00 | 0.00 | 92 | 1011.3 |
| 20260901065045 | 57 | 0 | 0.0 | 0.0 | 0.00 | 0.00 | 0.00 | 92 | 1011.2 |
| 20260901064532 | 57 | 0 | 0.0 | 0.0 | 0.00 | 0.00 | 0.00 | 92 | 1011.2 |
| 20260901064019 | 58 | 0 | 0.0 | 0.0 | 0.00 | 0.00 | 0.00 | 92 | 1011.3 |
| 20260901063506 | 57 | 0 | 0.0 | 4.0 | 0.00 | 0.00 | 0.00 | 92 | 1011.3 |
| 20260901062953 | 58 | 0 | 0.0 | 4.0 | 0.00 | 0.00 | 0.00 | 92 | 1011.2 |
| 20260901062440 | 57 | 0 | 0.0 | 4.0 | 0.00 | 0.00 | 0.00 | 92 | 1011.3 |
| 20260901061927 | 57 | 268 | 0.0 | 1.0 | 0.00 | 0.00 | 0.00 | 92 | 1011.3 |
| 20260901061414 | 57 | 0 | 0.0 | 0.0 | 0.00 | 0.00 | 0.00 | 92 | 1011.3 |
| 20260901060901 | 57 | 0 | 0.0 | 0.0 | 0.00 | 0.00 | 0.00 | 92 | 1011.4 |
| 20260901060348 | 57 | 0 | 0.0 | 5.0 | 0.00 | 0.00 | 0.00 | 92 | 1011.4 |
| 20260901055835 | 57 | 0 | 0.0 | 5.0 | 0.00 | 0.00 | 0.00 | 92 | 1011.4 |
| 20260901055322 | 57 | 302 | 0.0 | 5.0 | 0.00 | 0.00 | 0.00 | 92 | 1011.5 |
| 20260901054809 | 57 | 0 | 0.0 | 3.0 | 0.00 | 0.00 | 0.00 | 92 | 1011.6 |
| 20260901054256 | 57 | 0 | 0.0 | 3.0 | 0.00 | 0.00 | 0.00 | 92 | 1011.6 |
| 20260901053743 | 57 | 280 | 0.0 | 3.0 | 0.00 | 0.00 | 0.00 | 92 | 1011.6 |
| 20260901053230 | 57 | 0 | 0.0 | 0.0 | 0.00 | 0.00 | 0.00 | 92 | 1011.6 |
| 20260901052717 | 57 | 0 | 0.0 | 0.0 | 0.00 | 0.00 | 0.00 | 92 | 1011.7 |
| 20260901052204 | 57 | 0 | 0.0 | 0.0 | 0.00 | 0.00 | 0.00 | 92 | 1011.7 |
| 20260901051651 | 57 | 0 | 0.0 | 0.0 | 0.00 | 0.00 | 0.00 | 92 | 1011.6 |
| 20260901051138 | 57 | 0 | 0.0 | 0.0 | 0.00 | 0.00 | 0.00 | 91 | 1011.6 |
| 20260901050625 | 56 | 0 | 0.0 | 0.0 | 0.00 | 0.00 | 0.00 | 91 | 1011.6 |
| 20260901050112 | 57 | 0 | 0.0 | 0.0 | 0.00 | 0.00 | 0.00 | 91 | 1011.6 |
| 20260901045046 | 56 | 0 | 0.0 | 0.0 | 0.00 | 0.00 | 0.00 | 91 | 1011.6 |
| 20260901044533 | 56 | 0 | 0.0 | 0.0 | 0.00 | 0.00 | 0.00 | 91 | 1011.7 |
| 20260901044020 | 57 | 0 | 0.0 | 0.0 | 0.00 | 0.00 | 0.00 | 91 | 1011.6 |
| 20260901043507 | 57 | 0 | 0.0 | 0.0 | 0.00 | 0.00 | 0.00 | 91 | 1011.7 |
| 20260901042954 | 57 | 0 | 0.0 | 0.0 | 0.00 | 0.00 | 0.00 | 91 | 1011.6 |
| 20260901042441 | 57 | 0 | 0.0 | 0.0 | 0.00 | 0.00 | 0.00 | 91 | 1011.6 |
| 20260901041928 | 57 | 0 | 0.0 | 0.0 | 0.00 | 0.00 | 0.00 | 91 | 1011.5 |
| 20260901041415 | 58 | 0 | 0.0 | 0.0 | 0.00 | 0.00 | 0.00 | 91 | 1011.4 |
| 20260901040902 | 57 | 0 | 0.0 | 0.0 | 0.00 | 0.00 | 0.00 | 91 | 1011.3 |
| 20260901040350 | 57 | 0 | 0.0 | 0.0 | 0.00 | 0.00 | 0.00 | 91 | 1011.3 |
| 20260901035836 | 58 | 0 | 0.0 | 0.0 | 0.00 | 0.00 | 0.00 | 91 | 1011.2 |
| 20260901035323 | 57 | 0 | 0.0 | 0.0 | 0.00 | 0.00 | 0.00 | 91 | 1011.1 |
| 20260901034810 | 58 | 0 | 0.0 | 0.0 | 0.00 | 0.00 | 0.00 | 91 | 1011.2 |
| 20260901034257 | 58 | 0 | 0.0 | 0.0 | 0.00 | 0.00 | 0.00 | 91 | 1011.1 |
| 20260901033744 | 58 | 0 | 0.0 | 0.0 | 0.00 | 0.00 | 0.00 | 91 | 1011.0 |
| 20260901033231 | 58 | 0 | 0.0 | 0.0 | 0.00 | 0.00 | 0.00 | 91 | 1011.0 |
| 20260901032205 | 58 | 0 | 0.0 | 0.0 | 0.00 | 0.00 | 0.00 | 91 | 1011.0 |
| 20260901031138 | 58 | 0 | 0.0 | 0.0 | 0.00 | 0.00 | 0.00 | 91 | 1011.0 |
| 20260901030625 | 57 | 0 | 0.0 | 0.0 | 0.00 | 0.00 | 0.00 | 91 | 1010.9 |
| 20260901030113 | 57 | 0 | 0.0 | 0.0 | 0.00 | 0.00 | 0.00 | 91 | 1010.8 |
| 20260901025559 | 58 | 0 | 0.0 | 0.0 | 0.00 | 0.00 | 0.00 | 91 | 1010.7 |
| 20260901025046 | 58 | 0 | 0.0 | 0.0 | 0.00 | 0.00 | 0.00 | 91 | 1010.8 |
| 20260901024534 | 57 | 0 | 0.0 | 0.0 | 0.00 | 0.00 | 0.00 | 91 | 1010.8 |
| 20260901024020 | 57 | 0 | 0.0 | 6.0 | 0.00 | 0.00 | 0.00 | 91 | 1010.9 |
| 20260901023507 | 57 | 0 | 0.0 | 6.0 | 0.00 | 0.00 | 0.00 | 91 | 1010.9 |
| 20260901022954 | 57 | 0 | 2.0 | 6.0 | 0.00 | 0.00 | 0.00 | 90 | 1010.8 |
| 20260901022441 | 57 | 0 | 0.0 | 0.0 | 0.00 | 0.00 | 0.00 | 90 | 1010.8 |
| 20260901021928 | 56 | 175 | 0.0 | 7.0 | 0.00 | 0.00 | 0.00 | 90 | 1010.7 |
| 20260901021415 | 57 | 148 | 0.0 | 7.0 | 0.00 | 0.00 | 0.00 | 90 | 1010.9 |
| 20260901020902 | 56 | 207 | 4.0 | 7.0 | 0.00 | 0.00 | 0.00 | 90 | 1010.9 |
| 20260901020350 | 56 | 260 | 5.0 | 9.0 | 0.00 | 0.00 | 0.00 | 90 | 1010.9 |
| 20260901015836 | 57 | 285 | 2.0 | 9.0 | 0.00 | 0.00 | 0.00 | 90 | 1010.9 |
| 20260901015323 | 57 | 247 | 5.0 | 9.0 | 0.00 | 0.00 | 0.00 | 89 | 1010.9 |
| 20260901014811 | 57 | 0 | 0.0 | 9.0 | 0.00 | 0.00 | 0.00 | 89 | 1010.8 |
| 20260901014258 | 56 | 280 | 0.0 | 9.0 | 0.00 | 0.00 | 0.00 | 89 | 1010.7 |
| 20260901013744 | 57 | 264 | 5.0 | 9.0 | 0.00 | 0.00 | 0.00 | 89 | 1010.7 |
| 20260901012718 | 57 | 240 | 0.0 | 6.0 | 0.00 | 0.00 | 0.00 | 89 | 1010.6 |
| 20260901011652 | 57 | 0 | 0.0 | 5.0 | 0.00 | 0.00 | 0.00 | 89 | 1010.5 |
| 20260901011139 | 57 | 259 | 0.0 | 5.0 | 0.00 | 0.00 | 0.00 | 88 | 1010.5 |
| 20260901010626 | 58 | 0 | 0.0 | 8.0 | 0.00 | 0.00 | 0.00 | 88 | 1010.5 |
| 20260901010113 | 57 | 239 | 0.0 | 8.0 | 0.00 | 0.00 | 0.00 | 88 | 1010.5 |
| 20260901005600 | 58 | 235 | 1.0 | 8.0 | 0.00 | 0.00 | 0.00 | 87 | 1010.5 |
| 20260901005047 | 58 | 281 | 3.0 | 5.0 | 0.00 | 0.00 | 0.00 | 88 | 1010.5 |
| 20260901004534 | 58 | 0 | 0.0 | 3.0 | 0.00 | 0.00 | 0.00 | 88 | 1010.5 |
| 20260901004021 | 58 | 0 | 0.0 | 10.0 | 0.00 | 0.00 | 0.00 | 87 | 1010.5 |
| 20260901003508 | 59 | 0 | 3.0 | 10.0 | 0.00 | 0.00 | 0.00 | 87 | 1010.7 |
| 20260901002955 | 59 | 278 | 0.0 | 10.0 | 0.00 | 0.00 | 0.00 | 87 | 1010.7 |
| 20260901002442 | 59 | 275 | 4.0 | 8.0 | 0.00 | 0.00 | 0.00 | 87 | 1010.6 |
| 20260901001929 | 60 | 256 | 1.0 | 5.0 | 0.00 | 0.00 | 0.00 | 87 | 1010.5 |
| 20260901001416 | 60 | 194 | 0.0 | 3.0 | 0.00 | 0.00 | 0.00 | 87 | 1010.5 |
| 20260901000903 | 59 | 287 | 3.0 | 7.0 | 0.00 | 0.00 | 0.00 | 87 | 1010.6 |
| 20260901000350 | 60 | 261 | 3.0 | 7.0 | 0.00 | 0.00 | 0.00 | 86 | 1010.6 |
| 20260831235837 | 60 | 302 | 3.0 | 7.0 | 0.00 | 0.00 | 0.00 | 86 | 1010.7 |
| 20260831235324 | 60 | 266 | 0.0 | 7.0 | 0.00 | 0.00 | 0.00 | 87 | 1010.7 |
| 20260831234811 | 61 | 305 | 1.0 | 7.0 | 0.00 | 0.00 | 0.00 | 86 | 1010.7 |
| 20260831234259 | 61 | 270 | 3.0 | 7.0 | 0.00 | 0.00 | 0.00 | 85 | 1010.7 |
| 20260831233745 | 62 | 229 | 4.0 | 7.0 | 0.00 | 0.00 | 0.00 | 85 | 1010.7 |
| 20260831232206 | 62 | 299 | 2.0 | 6.0 | 0.00 | 0.00 | 0.00 | 86 | 1010.7 |
| 20260831231653 | 62 | 329 | 4.0 | 6.0 | 0.00 | 0.00 | 0.00 | 86 | 1010.7 |
| 20260831231140 | 62 | 0 | 0.0 | 6.0 | 0.00 | 0.00 | 0.00 | 87 | 1010.8 |
| 20260831230627 | 61 | 212 | 2.0 | 6.0 | 0.00 | 0.00 | 0.00 | 87 | 1010.9 |
| 20260831230114 | 61 | 253 | 4.0 | 6.0 | 0.00 | 0.00 | 0.00 | 88 | 1010.9 |
| 20260831225602 | 59 | 292 | 3.0 | 9.0 | 0.00 | 0.00 | 0.00 | 88 | 1010.9 |
| 20260831224535 | 58 | 193 | 3.0 | 9.0 | 0.00 | 0.00 | 0.00 | 87 | 1011.0 |
| 20260831224022 | 59 | 280 | 1.0 | 9.0 | 0.00 | 0.00 | 0.00 | 87 | 1011.1 |
| 20260831223509 | 58 | 254 | 4.0 | 9.0 | 0.00 | 0.00 | 0.00 | 87 | 1011.0 |
| 20260831222956 | 58 | 294 | 3.0 | 9.0 | 0.00 | 0.00 | 0.00 | 87 | 1011.1 |
| 20260831222443 | 59 | 224 | 6.0 | 13.0 | 0.00 | 0.00 | 0.00 | 86 | 1011.1 |
| 20260831221930 | 59 | 242 | 6.0 | 13.0 | 0.00 | 0.00 | 0.00 | 86 | 1011.1 |
| 20260831221417 | 59 | 274 | 6.0 | 13.0 | 0.00 | 0.00 | 0.00 | 86 | 1011.1 |
| 20260831220904 | 60 | 238 | 5.0 | 10.0 | 0.00 | 0.00 | 0.00 | 86 | 1011.1 |
| 20260831220351 | 61 | 268 | 5.0 | 10.0 | 0.00 | 0.00 | 0.00 | 86 | 1011.1 |
| 20260831215838 | 61 | 235 | 5.0 | 9.0 | 0.00 | 0.00 | 0.00 | 86 | 1011.0 |
| 20260831215325 | 61 | 264 | 5.0 | 9.0 | 0.00 | 0.00 | 0.00 | 86 | 1011.0 |
| 20260831214813 | 62 | 266 | 7.0 | 12.0 | 0.00 | 0.00 | 0.00 | 86 | 1011.0 |
| 20260831214259 | 61 | 268 | 5.0 | 12.0 | 0.00 | 0.00 | 0.00 | 86 | 1011.0 |
| 20260831213746 | 62 | 271 | 7.0 | 12.0 | 0.00 | 0.00 | 0.00 | 85 | 1011.0 |
| 20260831213233 | 62 | 270 | 6.0 | 9.0 | 0.00 | 0.00 | 0.00 | 85 | 1011.0 |
| 20260831212720 | 62 | 253 | 2.0 | 9.0 | 0.00 | 0.00 | 0.00 | 86 | 1010.9 |
| 20260831212207 | 62 | 288 | 4.0 | 9.0 | 0.00 | 0.00 | 0.00 | 86 | 1010.9 |
| 20260831211654 | 62 | 285 | 6.0 | 10.0 | 0.00 | 0.00 | 0.00 | 86 | 1010.8 |
| 20260831211141 | 61 | 291 | 3.0 | 10.0 | 0.00 | 0.00 | 0.00 | 86 | 1010.8 |
| 20260831210628 | 62 | 266 | 3.0 | 10.0 | 0.00 | 0.00 | 0.00 | 87 | 1010.8 |
| 20260831210115 | 61 | 254 | 5.0 | 9.0 | 0.00 | 0.00 | 0.00 | 86 | 1010.8 |
| 20260831205049 | 61 | 277 | 2.0 | 10.0 | 0.00 | 0.00 | 0.00 | 88 | 1010.9 |
| 20260831204536 | 60 | 275 | 4.0 | 10.0 | 0.00 | 0.00 | 0.00 | 87 | 1010.9 |
| 20260831204023 | 60 | 277 | 3.0 | 10.0 | 0.00 | 0.00 | 0.00 | 87 | 1011.0 |
| 20260831202959 | 60 | 0 | 3.0 | 9.0 | 0.00 | 0.00 | 0.00 | 88 | 1011.0 |
| 20260831202444 | 58 | 261 | 3.0 | 8.0 | 0.00 | 0.00 | 0.00 | 88 | 1011.0 |
| 20260831201931 | 59 | 238 | 4.0 | 11.0 | 0.00 | 0.00 | 0.00 | 88 | 1011.0 |
| 20260831200905 | 59 | 275 | 3.0 | 11.0 | 0.00 | 0.00 | 0.00 | 88 | 1011.1 |
| 20260831200352 | 59 | 287 | 6.0 | 10.0 | 0.00 | 0.00 | 0.00 | 89 | 1011.1 |
| 20260831195839 | 58 | 236 | 6.0 | 9.0 | 0.00 | 0.00 | 0.00 | 88 | 1011.1 |
| 20260831194352 | 58 | 288 | 6.0 | 9.0 | 0.00 | 0.00 | 0.00 | 88 | 1011.0 |
| 20260831194300 | 58 | 288 | 6.0 | 9.0 | 0.00 | 0.00 | 0.00 | 88 | 1011.0 |
| 20260831193748 | 58 | 305 | 6.0 | 9.0 | 0.00 | 0.00 | 0.00 | 89 | 1011.0 |
| 20260831193234 | 58 | 310 | 4.0 | 9.0 | 0.00 | 0.00 | 0.00 | 89 | 1011.0 |
| 20260831192721 | 58 | 288 | 7.0 | 9.0 | 0.00 | 0.00 | 0.00 | 88 | 1010.9 |
| 20260831192208 | 59 | 284 | 7.0 | 8.0 | 0.00 | 0.00 | 0.00 | 88 | 1010.9 |
| 20260831191655 | 60 | 291 | 5.0 | 8.0 | 0.00 | 0.00 | 0.00 | 88 | 1010.8 |
| 20260831191142 | 61 | 305 | 6.0 | 8.0 | 0.00 | 0.00 | 0.00 | 88 | 1010.8 |
| 20260831190629 | 60 | 292 | 5.0 | 7.0 | 0.00 | 0.00 | 0.00 | 89 | 1010.8 |
| 20260831190116 | 60 | 295 | 6.0 | 7.0 | 0.00 | 0.00 | 0.00 | 89 | 1010.8 |
| 20260831185603 | 60 | 308 | 2.0 | 7.0 | 0.00 | 0.00 | 0.00 | 89 | 1010.9 |
| 20260831185050 | 60 | 287 | 5.0 | 6.0 | 0.00 | 0.00 | 0.00 | 89 | 1011.0 |
| 20260831184537 | 61 | 292 | 5.0 | 8.0 | 0.00 | 0.00 | 0.00 | 89 | 1011.0 |
| 20260831184024 | 62 | 298 | 5.0 | 8.0 | 0.00 | 0.00 | 0.00 | 89 | 1011.1 |
| 20260831183511 | 62 | 305 | 5.0 | 8.0 | 0.00 | 0.00 | 0.00 | 89 | 1011.1 |
| 20260831183000 | 62 | 285 | 0.0 | 7.0 | 0.00 | 0.00 | 0.00 | 91 | 1011.2 |
| 20260831182445 | 61 | 268 | 0.0 | 7.0 | 0.00 | 0.00 | 0.00 | 91 | 1011.2 |
| 20260831180353 | 60 | 303 | 4.0 | 6.0 | 0.00 | 0.00 | 0.00 | 92 | 1011.3 |
| 20260831175840 | 60 | 250 | 2.0 | 6.0 | 0.00 | 0.00 | 0.00 | 92 | 1011.3 |
| 20260831174814 | 59 | 280 | 0.0 | 5.0 | 0.00 | 0.00 | 0.00 | 92 | 1011.3 |
| 20260831174301 | 59 | 298 | 0.0 | 5.0 | 0.00 | 0.00 | 0.00 | 93 | 1011.3 |
| 20260831173748 | 58 | 0 | 0.0 | 5.0 | 0.00 | 0.00 | 0.00 | 93 | 1011.3 |
| 20260831173235 | 57 | 298 | 0.0 | 5.0 | 0.00 | 0.00 | 0.00 | 93 | 1011.3 |
| 20260831172722 | 57 | 294 | 3.0 | 5.0 | 0.00 | 0.00 | 0.00 | 93 | 1011.3 |
| 20260831172210 | 56 | 308 | 2.0 | 5.0 | 0.00 | 0.00 | 0.00 | 93 | 1011.2 |
| 20260831171656 | 56 | 0 | 0.0 | 0.0 | 0.00 | 0.00 | 0.00 | 94 | 1011.2 |
| 20260831171143 | 56 | 0 | 0.0 | 0.0 | 0.00 | 0.00 | 0.00 | 94 | 1011.2 |
| 20260831170630 | 56 | 0 | 0.0 | 0.0 | 0.00 | 0.00 | 0.00 | 94 | 1011.3 |
| 20260831170117 | 56 | 0 | 0.0 | 0.0 | 0.00 | 0.00 | 0.00 | 94 | 1011.2 |
| 20260831165604 | 56 | 0 | 0.0 | 0.0 | 0.00 | 0.00 | 0.00 | 94 | 1011.1 |
| 20260831165051 | 56 | 0 | 0.0 | 0.0 | 0.00 | 0.00 | 0.00 | 94 | 1011.2 |
| 20260831164538 | 55 | 0 | 0.0 | 0.0 | 0.00 | 0.00 | 0.00 | 94 | 1011.1 |
| 20260831164025 | 55 | 0 | 0.0 | 0.0 | 0.00 | 0.00 | 0.00 | 94 | 1011.1 |
| 20260831163512 | 55 | 0 | 0.0 | 0.0 | 0.00 | 0.00 | 0.00 | 94 | 1011.2 |
| 20260831162446 | 55 | 0 | 0.0 | 0.0 | 0.00 | 0.00 | 0.00 | 94 | 1011.3 |
| 20260831161933 | 55 | 0 | 0.0 | 0.0 | 0.00 | 0.00 | 0.00 | 94 | 1011.3 |
| 20260831161420 | 54 | 0 | 0.0 | 0.0 | 0.00 | 0.00 | 0.00 | 95 | 1011.2 |
| 20260831160907 | 54 | 0 | 0.0 | 0.0 | 0.00 | 0.00 | 0.00 | 95 | 1011.3 |
| 20260831160354 | 54 | 0 | 0.0 | 0.0 | 0.00 | 0.00 | 0.00 | 95 | 1011.3 |
| 20260831155841 | 54 | 0 | 0.0 | 0.0 | 0.00 | 0.01 | 0.00 | 95 | 1011.3 |
| 20260831154815 | 53 | 0 | 0.0 | 0.0 | 0.00 | 0.01 | 0.00 | 95 | 1011.4 |
| 20260831154302 | 53 | 0 | 0.0 | 0.0 | 0.00 | 0.01 | 0.00 | 95 | 1011.4 |
| 20260831153749 | 53 | 0 | 0.0 | 0.0 | 0.00 | 0.01 | 0.00 | 95 | 1011.4 |
| 20260831153236 | 53 | 0 | 0.0 | 0.0 | 0.00 | 0.01 | 0.00 | 95 | 1011.4 |
| 20260831152723 | 53 | 0 | 0.0 | 0.0 | 0.00 | 0.01 | 0.00 | 95 | 1011.3 |
| 20260831152210 | 53 | 0 | 0.0 | 0.0 | 0.00 | 0.01 | 0.00 | 95 | 1011.4 |
| 20260831151657 | 53 | 0 | 0.0 | 0.0 | 0.00 | 0.01 | 0.00 | 95 | 1011.4 |
| 20260831151144 | 52 | 0 | 0.0 | 0.0 | 0.00 | 0.01 | 0.00 | 95 | 1011.4 |
| 20260831150631 | 52 | 0 | 0.0 | 0.0 | 0.00 | 0.01 | 0.00 | 95 | 1011.5 |
| 20260831150117 | 52 | 0 | 0.0 | 0.0 | 0.00 | 0.01 | 0.00 | 95 | 1011.5 |
| 20260831145606 | 52 | 0 | 0.0 | 0.0 | 0.00 | 0.01 | 0.00 | 95 | 1011.5 |
| 20260831145052 | 52 | 0 | 0.0 | 0.0 | 0.00 | 0.01 | 0.00 | 95 | 1011.5 |
| 20260831144539 | 52 | 0 | 0.0 | 0.0 | 0.00 | 0.01 | 0.00 | 95 | 1011.5 |
| 20260831144025 | 52 | 0 | 0.0 | 0.0 | 0.00 | 0.01 | 0.00 | 95 | 1011.4 |
| 20260831143513 | 52 | 0 | 0.0 | 0.0 | 0.00 | 0.01 | 0.00 | 95 | 1011.3 |
| 20260831143000 | 51 | 0 | 0.0 | 0.0 | 0.00 | 0.01 | 0.00 | 96 | 1011.2 |
| 20260831141933 | 51 | 0 | 0.0 | 0.0 | 0.00 | 0.01 | 0.00 | 95 | 1011.1 |
| 20260831141420 | 51 | 0 | 0.0 | 0.0 | 0.00 | 0.01 | 0.00 | 95 | 1011.1 |
| 20260831140907 | 51 | 0 | 0.0 | 0.0 | 0.00 | 0.01 | 0.00 | 96 | 1011.0 |
| 20260831140354 | 51 | 0 | 0.0 | 0.0 | 0.00 | 0.01 | 0.00 | 96 | 1011.0 |
| 20260831135841 | 51 | 0 | 0.0 | 0.0 | 0.00 | 0.01 | 0.00 | 95 | 1010.9 |
| 20260831135329 | 51 | 0 | 0.0 | 0.0 | 0.00 | 0.01 | 0.00 | 96 | 1010.9 |
| 20260831134815 | 51 | 0 | 0.0 | 0.0 | 0.00 | 0.01 | 0.00 | 96 | 1010.8 |
| 20260831134302 | 51 | 0 | 0.0 | 0.0 | 0.00 | 0.01 | 0.00 | 95 | 1010.9 |
| 20260831133749 | 51 | 0 | 0.0 | 0.0 | 0.00 | 0.01 | 0.00 | 95 | 1010.9 |
| 20260831133236 | 51 | 0 | 0.0 | 0.0 | 0.00 | 0.01 | 0.00 | 95 | 1010.9 |
| 20260831132723 | 51 | 0 | 0.0 | 0.0 | 0.00 | 0.01 | 0.00 | 95 | 1011.0 |
| 20260831132210 | 51 | 0 | 0.0 | 0.0 | 0.00 | 0.01 | 0.00 | 95 | 1011.0 |
| 20260831131657 | 51 | 0 | 0.0 | 0.0 | 0.00 | 0.01 | 0.00 | 95 | 1011.0 |
| 20260831131144 | 51 | 0 | 0.0 | 0.0 | 0.00 | 0.01 | 0.00 | 96 | 1011.1 |
| 20260831130631 | 51 | 0 | 0.0 | 0.0 | 0.00 | 0.01 | 0.00 | 95 | 1011.1 |
| 20260831130118 | 52 | 0 | 0.0 | 0.0 | 0.00 | 0.01 | 0.00 | 95 | 1011.1 |
| 20260831125605 | 51 | 0 | 0.0 | 0.0 | 0.00 | 0.01 | 0.00 | 95 | 1011.1 |
| 20260831125052 | 52 | 0 | 0.0 | 0.0 | 0.00 | 0.01 | 0.00 | 95 | 1011.1 |
| 20260831124539 | 52 | 0 | 0.0 | 0.0 | 0.00 | 0.01 | 0.00 | 95 | 1011.2 |
| 20260831124026 | 51 | 0 | 0.0 | 0.0 | 0.00 | 0.01 | 0.00 | 95 | 1011.2 |
| 20260831123513 | 51 | 0 | 0.0 | 0.0 | 0.00 | 0.01 | 0.00 | 95 | 1011.2 |
| 20260831123000 | 51 | 0 | 0.0 | 0.0 | 0.00 | 0.01 | 0.00 | 95 | 1011.2 |
| 20260831122448 | 51 | 0 | 0.0 | 0.0 | 0.00 | 0.01 | 0.00 | 95 | 1011.2 |
| 20260831121934 | 51 | 0 | 0.0 | 0.0 | 0.00 | 0.01 | 0.00 | 95 | 1011.3 |
| 20260831121421 | 51 | 0 | 0.0 | 0.0 | 0.00 | 0.01 | 0.00 | 95 | 1011.4 |
| 20260831120908 | 51 | 0 | 0.0 | 0.0 | 0.00 | 0.01 | 0.00 | 95 | 1011.4 |
| 20260831120356 | 51 | 0 | 0.0 | 0.0 | 0.00 | 0.01 | 0.00 | 95 | 1011.4 |
| 20260831114817 | 52 | 0 | 0.0 | 0.0 | 0.00 | 0.01 | 0.00 | 94 | 1011.5 |
| 20260831114304 | 52 | 0 | 0.0 | 0.0 | 0.00 | 0.01 | 0.00 | 95 | 1011.5 |
| 20260831113750 | 52 | 0 | 0.0 | 0.0 | 0.00 | 0.01 | 0.00 | 94 | 1011.5 |
| 20260831113237 | 52 | 0 | 0.0 | 0.0 | 0.00 | 0.01 | 0.00 | 95 | 1011.5 |
| 20260831112724 | 52 | 0 | 0.0 | 0.0 | 0.00 | 0.01 | 0.00 | 94 | 1011.6 |
| 20260831112211 | 52 | 0 | 0.0 | 0.0 | 0.00 | 0.01 | 0.00 | 94 | 1011.7 |
| 20260831111658 | 52 | 0 | 0.0 | 0.0 | 0.00 | 0.01 | 0.00 | 95 | 1011.7 |
| 20260831111145 | 52 | 0 | 0.0 | 0.0 | 0.00 | 0.01 | 0.00 | 94 | 1011.6 |
| 20260831110632 | 51 | 0 | 0.0 | 0.0 | 0.00 | 0.01 | 0.00 | 94 | 1011.6 |
| 20260831110119 | 51 | 0 | 0.0 | 0.0 | 0.00 | 0.01 | 0.00 | 94 | 1011.6 |
| 20260831105606 | 51 | 0 | 0.0 | 0.0 | 0.00 | 0.01 | 0.00 | 94 | 1011.8 |
| 20260831104540 | 51 | 0 | 0.0 | 0.0 | 0.00 | 0.01 | 0.00 | 94 | 1011.6 |